Hourly Data Report for October 25, 2016

All times are specified in Local Standard Time (LST). Add 1 hour to adjust for Daylight Saving Time where and when it is observed.

WINNIPEG A CS
MANITOBA

49°55'00.000" N
97°14'58.000" W
238.70 m
502S001
71849
XWG

Download Data

Hourly Data (October 2016)
Hourly Data Report for October 25, 2016
Temp Definition
°C
Dew Point Temp Definition
°C
Rel Hum Definition
%
Wind Dir Definition
10's deg

Wind Spd Definition
km/h
Visibility Definition
km
Stn Press Definition
kPa
Hmdx Definition


Wind Chill Definition


Weather Definition


TIME
00:00 2.0 1.4 95 9 6   99.95     LegendNANA
01:00 1.3 0.5 94 7 8   99.96     LegendNANA
02:00 1.8 1.2 96 10 8   99.96     LegendNANA
03:00 1.8 0.8 93 10 11   99.94     LegendNANA
04:00 1.3 0.1 92 10 11   99.93     LegendNANA
05:00 1.6 -0.2 88 11 12   99.90     LegendNANA
06:00 2.4 0.3 86 11 15   99.88     LegendNANA
07:00 2.2 0.2 87 12 13   99.86     LegendNANA
08:00 3.4 0.7 83 11 17   99.84     LegendNANA
09:00 4.9 1.3 77 11 19   99.84     LegendNANA
10:00 6.2 2.3 76 11 19   99.84     LegendNANA
11:00 9.0 3.1 67 12 22   99.83     LegendNANA
12:00 10.1 2.3 59 13 25   99.79     LegendNANA
13:00 11.4 2.0 52 12 26   99.73     LegendNANA
14:00 12.0 1.3 48 12 29   99.65     LegendNANA
15:00 11.8 0.1 44 11 29   99.55     LegendNANA
16:00 10.9 0.2 48 12 23   99.51     LegendNANA
17:00 9.6 1.3 56 11 25   99.49     LegendNANA
18:00 9.0 1.7 60 11 22   99.55     LegendNANA
19:00 7.5 1.9 68 10 22   99.55     LegendNANA
20:00 7.2 2.4 72 10 26   99.52     LegendNANA
21:00 6.8 2.7 75 11 26   99.48     LegendNANA
22:00 6.2 2.5 77 12 26   99.45     LegendNANA
23:00 5.9 2.4 78 12 26   99.42     LegendNANA

Notes on Data Quality.

Legend

  • E = Estimated
  • M = Missing
  • NA = Not Available
  • ‡ = Partner data that is not subject to review by the National Climate Archives
Date modified: